TimeEST,TemperatureF,Dew PointF,Humidity,Sea Level PressureIn,VisibilityMPH,Wind Direction,Wind SpeedMPH,Gust SpeedMPH,PrecipitationIn,Events,Conditions,WindDirDegrees,DateUTC
12:53 AM,28.0,23.0,81,30.42,10.0,NW,9.2,-,N/A,,Clear,320,2012-11-14 05:53:00
1:53 AM,27.0,23.0,85,30.44,10.0,NW,6.9,-,N/A,,Clear,320,2012-11-14 06:53:00
2:53 AM,27.0,21.0,78,30.45,10.0,NNW,10.4,-,N/A,,Clear,330,2012-11-14 07:53:00
3:53 AM,27.0,19.9,75,30.46,10.0,NW,6.9,-,N/A,,Clear,320,2012-11-14 08:53:00
4:53 AM,26.1,19.9,78,30.48,10.0,NNW,3.5,-,N/A,,Clear,330,2012-11-14 09:53:00
5:53 AM,25.0,19.0,78,30.50,10.0,NW,5.8,-,N/A,,Clear,320,2012-11-14 10:53:00
6:53 AM,25.0,19.0,78,30.54,10.0,NW,3.5,-,N/A,,Clear,320,2012-11-14 11:53:00
7:53 AM,27.0,21.0,78,30.56,10.0,NNW,4.6,-,N/A,,Clear,330,2012-11-14 12:53:00
8:53 AM,30.9,23.0,72,30.56,10.0,NNW,3.5,-,N/A,,Clear,330,2012-11-14 13:53:00
9:53 AM,32.0,21.9,66,30.57,10.0,North,8.1,-,N/A,,Clear,360,2012-11-14 14:53:00
10:53 AM,33.1,21.9,64,30.56,10.0,NNE,6.9,-,N/A,,Partly Cloudy,20,2012-11-14 15:53:00
11:48 AM,33.8,21.2,60,30.52,10.0,North,6.9,-,N/A,,Mostly Cloudy,360,2012-11-14 16:48:00
11:53 AM,32.0,21.0,64,30.56,10.0,NNW,9.2,-,N/A,,Scattered Clouds,340,2012-11-14 16:53:00
12:11 PM,35.6,21.2,56,30.52,10.0,North,12.7,16.1,N/A,,Mostly Cloudy,350,2012-11-14 17:11:00
12:18 PM,33.8,21.2,60,30.52,10.0,NNW,8.1,-,N/A,,Scattered Clouds,340,2012-11-14 17:18:00
12:33 PM,33.8,21.2,60,30.51,10.0,NNW,11.5,-,N/A,,Mostly Cloudy,340,2012-11-14 17:33:00
12:40 PM,32.0,21.2,64,30.51,10.0,NNW,10.4,-,N/A,,Scattered Clouds,340,2012-11-14 17:40:00
12:53 PM,34.0,21.9,61,30.55,10.0,NNW,6.9,-,N/A,,Scattered Clouds,330,2012-11-14 17:53:00
1:53 PM,33.1,21.0,61,30.56,10.0,North,9.2,-,N/A,,Overcast,360,2012-11-14 18:53:00
2:32 PM,33.8,21.2,60,30.52,10.0,North,10.4,-,N/A,,Mostly Cloudy,350,2012-11-14 19:32:00
2:53 PM,32.0,21.0,64,30.57,10.0,NNW,8.1,-,N/A,,Overcast,340,2012-11-14 19:53:00
3:53 PM,30.9,21.0,67,30.57,10.0,NNW,8.1,-,N/A,,Overcast,330,2012-11-14 20:53:00
4:53 PM,30.0,21.9,72,30.58,10.0,North,3.5,-,N/A,,Overcast,350,2012-11-14 21:53:00
5:53 PM,30.0,21.0,69,30.58,10.0,NNW,6.9,-,N/A,,Overcast,330,2012-11-14 22:53:00
6:53 PM,28.0,21.0,75,30.58,10.0,NNW,6.9,-,N/A,,Overcast,340,2012-11-14 23:53:00
7:53 PM,27.0,19.9,75,30.58,10.0,NNW,6.9,-,N/A,,Overcast,340,2012-11-15 00:53:00
8:53 PM,26.1,19.9,78,30.58,10.0,NNW,5.8,-,N/A,,Partly Cloudy,340,2012-11-15 01:53:00
9:53 PM,25.0,19.9,81,30.57,10.0,North,4.6,-,N/A,,Clear,350,2012-11-15 02:53:00
10:53 PM,25.0,19.9,81,30.57,10.0,North,6.9,-,N/A,,Clear,360,2012-11-15 03:53:00
11:53 PM,24.1,19.9,84,30.57,10.0,North,8.1,-,N/A,,Clear,360,2012-11-15 04:53:00